Regional Weather Roundup
Issued by NWS

Home | Current Version | Previous Version | Text Only | Print | Product List | Glossary Off
Versions: 1 2 3 4 5 6 7 8 9 10 11 12 13 14 15 16 17 18 19 20 21 22 23 24 25 26 27 28 29 30 31 32 33 34 35 36 37 38 39 40 41 42 43 44 45 46 47 48 49 50

000
ASUS45 KCYS 250610
RWRWY

WYOMING REGIONAL WEATHER ROUNDUP
NATIONAL WEATHER SERVICE CHEYENNE WY
1200 AM MDT FRI JUL 25 2014

NOTE:  "FAIR" INDICATES FEW OR NO CLOUDS BELOW 12,000 FEET
WITH NO SIGNIFICANT WEATHER AND/OR OBSTRUCTIONS TO VISIBILITY.

WYZ001-250700-
YELLOWSTONE NATIONAL PARK

CITY           SKY/WX    TMP DP  RH WIND       PRES   REMARKS
LK YELLOWSTONE   N/A     43  24  47 VRB3      30.29R
6HR MIN TEMP:  43; 6HR MAX TEMP:  68;

W YELLOWSTONE  NOT AVBL

$$
WYZ002>013-054>058-071-098>099-250700-
NORTHERN WYOMING

CITY           SKY/WX    TMP DP  RH WIND       PRES   REMARKS
JACKSON        CLEAR     45  25  45 N6        30.18S
CODY           NOT AVBL
GREYBULL       CLEAR     77  44  30 W3        29.91R
6HR MIN TEMP:  76; 6HR MAX TEMP:  99;

WORLAND        CLEAR     66  28  24 CALM      29.94R
6HR MIN TEMP:  66; 6HR MAX TEMP:  96;

SHERIDAN       PTCLDY    62  50  64 NW3       30.01R
6HR MIN TEMP:  62; 6HR MAX TEMP:  97;

BUFFALO        CLEAR     66  49  54 N12       30.06R
6HR MIN TEMP:  66; 6HR MAX TEMP:  95;

GILLETTE       CLEAR     65  52  62 N13       30.00R
6HR MIN TEMP:  65; 6HR MAX TEMP:  98;

HULETT         FAIR      63  54  72 MISG      29.99
NEWCASTLE      FAIR      73  59  60 N12       29.86

$$
WYZ014>020-022>026-101>103-250700-
CENTRAL WYOMING

CITY           SKY/WX    TMP DP  RH WIND       PRES   REMARKS
BIG PINEY      CLEAR     53  22  29 NE9       30.22F
6HR MIN TEMP:  51; 6HR MAX TEMP:  84;

PINEDALE       CLEAR     48  36  61 NW6       30.24S
DUBOIS         FAIR      54  21  28 NW16      30.20S
LANDER         CLEAR     73  20  13 CALM      30.03S
6HR MIN TEMP:  70; 6HR MAX TEMP:  93;

RIVERTON       CLEAR     70  26  19 NW12      30.05S
6HR MIN TEMP:  69; 6HR MAX TEMP:  94;

CASPER         CLEAR     70  26  19 W8        30.03R
6HR MIN TEMP:  70; 6HR MAX TEMP:  93; 6HR PCP: TRACE;

DOUGLAS        CLEAR     68  41  37 N6        29.98R
6HR MIN TEMP:  66; 6HR MAX TEMP:  94;


$$
WYZ021-027>030-104>119-250700-
SOUTHERN WYOMING

CITY           SKY/WX    TMP DP  RH WIND       PRES   REMARKS
EVANSTON       PTCLDY    66  34  30 NE7       30.22S
6HR MIN TEMP:  64; 6HR MAX TEMP:  84;

KEMMERER       CLEAR     59  32  36 NW8       30.24R
FORT BRIDGER   FAIR      64  30  27 CALM      30.25R
ROCK SPRINGS   CLEAR     70  28  21 NW3       30.19S
6HR MIN TEMP:  68; 6HR MAX TEMP:  88;

DIXON          MOCLDY    75  45  33 S8        30.22R
RAWLINS        CLEAR     69  38  32 SW10      30.20R
6HR MIN TEMP:  68; 6HR MAX TEMP:  87;

SARATOGA       FAIR      64  43  45 CALM      30.23R
LARAMIE        PTCLDY    64  48  56 W9        30.23R
6HR MIN TEMP:  61; 6HR MAX TEMP:  81;

CHEYENNE       PTCLDY    70  53  54 SW16G26   30.12F
6HR MIN TEMP:  70; 6HR MAX TEMP:  86;

TORRINGTON     CLEAR     72  52  49 SE6       29.89R
6HR MIN TEMP:  70; 6HR MAX TEMP:  97;

PINE BLUFFS    FAIR      68  54  60 S10       30.04F

$$


USA.gov is the U.S. government's official web portal to all federal, state and local government web resources and services.